When you browse on this site, cookies collect data to enhance your experience and personalize the content and advertising you see.
Visit our Privacy Policy to learn more. By continuing to use the site, you agree to this use of cookies and data.
  • In Hungary
  • List of Countries
  • For 7 days
  • Water Temperature
  • Weather Map
  • News
  • Weather Widgets
  • user-avatar
    Login

    Hourly Weather Galata

    Today, 5 June, Friday

    Time Temperature Precipitation Wind Pressure Humidity
    00:00 +15°C° 0 mm 4 mps 752 mmHg 86%
    01:00 +15°C° 0 mm 4 mps 752 mmHg 87%
    02:00 +15°C° 0 mm 4 mps 752 mmHg 88%
    03:00 +14°C° 0 mm 4 mps 752 mmHg 88%
    04:00 +14°C° 0 mm 4 mps 752 mmHg 89%
    05:00 +14°C° 0 mm 4 mps 751 mmHg 89%
    06:00 +16°C° 0 mm 5 mps 752 mmHg 84%
    07:00 +19°C° 0 mm 5 mps 752 mmHg 79%
    08:00 +20°C° 0 mm 6 mps 752 mmHg 74%
    09:00 +22°C° 0 mm 6 mps 752 mmHg 69%
    10:00 +23°C° 0 mm 7 mps 752 mmHg 65%
    11:00 +26°C° 0 mm 7 mps 752 mmHg 60%
    12:00 +26°C° 0 mm 7 mps 752 mmHg 59%
    13:00 +27°C° 0 mm 7 mps 752 mmHg 57%
    14:00 +27°C° 0 mm 8 mps 751 mmHg 55%
    15:00 +27°C° 0 mm 7 mps 751 mmHg 57%
    16:00 +27°C° 0 mm 7 mps 751 mmHg 58%
    17:00 +26°C° 0 mm 7 mps 751 mmHg 60%
    18:00 +24°C° 0 mm 6 mps 751 mmHg 61%
    19:00 +22°C° 0 mm 6 mps 751 mmHg 61%
    20:00 +20°C° 0 mm 5 mps 751 mmHg 62%
    21:00 +19°C° 0 mm 5 mps 751 mmHg 64%
    22:00 +17°C° 0 mm 5 mps 752 mmHg 66%
    23:00 +17°C° 0 mm 4 mps 752 mmHg 67%

    Tomorrow, 6 June, Saturday

    Time Temperature Precipitation Wind Pressure Humidity
    00:00 +17°C° 0 mm 4 mps 752 mmHg 68%
    01:00 +17°C° 0 mm 4 mps 752 mmHg 69%
    02:00 +17°C° 0 mm 4 mps 752 mmHg 69%
    03:00 +15°C° 0 mm 4 mps 752 mmHg 71%
    04:00 +15°C° 0 mm 4 mps 752 mmHg 73%
    05:00 +15°C° 0 mm 4 mps 752 mmHg 75%
    06:00 +18°C° 0 mm 4 mps 752 mmHg 68%
    07:00 +20°C° 0 mm 4 mps 752 mmHg 62%
    08:00 +22°C° 0 mm 4 mps 752 mmHg 55%
    09:00 +23°C° 0 mm 4 mps 752 mmHg 52%
    10:00 +26°C° 0 mm 4 mps 752 mmHg 48%
    11:00 +27°C° 0 mm 3 mps 752 mmHg 44%
    12:00 +27°C° 0 mm 3 mps 752 mmHg 45%
    13:00 +27°C° 0 mm 3 mps 752 mmHg 46%
    14:00 +27°C° 0 mm 3 mps 752 mmHg 47%
    15:00 +27°C° 0 mm 3 mps 752 mmHg 51%
    16:00 +26°C° 0 mm 3 mps 752 mmHg 55%
    17:00 +25°C° 0 mm 3 mps 752 mmHg 59%
    18:00 +22°C° 0.2 mm 3 mps 751 mmHg 67%
    19:00 +20°C° 0.2 mm 3 mps 751 mmHg 76%
    20:00 +18°C° 0.2 mm 3 mps 751 mmHg 84%
    21:00 +18°C° 0.1 mm 3 mps 751 mmHg 86%
    22:00 +18°C° 0.1 mm 2 mps 751 mmHg 88%
    23:00 +17°C° 0.1 mm 2 mps 751 mmHg 90%

    Day after tomorrow, 7 June, Sunday

    Time Temperature Precipitation Wind Pressure Humidity
    00:00 +17°C° 0 mm 2 mps 751 mmHg 89%
    01:00 +17°C° 0 mm 2 mps 751 mmHg 88%
    02:00 +16°C° 0 mm 2 mps 751 mmHg 87%
    03:00 +16°C° 0 mm 2 mps 751 mmHg 87%
    04:00 +16°C° 0 mm 3 mps 750 mmHg 87%
    05:00 +16°C° 0 mm 3 mps 750 mmHg 87%
    06:00 +18°C° 0.1 mm 3 mps 750 mmHg 84%
    07:00 +19°C° 0.1 mm 3 mps 750 mmHg 81%
    08:00 +21°C° 0.1 mm 3 mps 751 mmHg 78%
    09:00 +22°C° 0 mm 3 mps 751 mmHg 74%
    10:00 +24°C° 0 mm 3 mps 751 mmHg 70%
    11:00 +25°C° 0 mm 3 mps 751 mmHg 65%
    12:00 +26°C° 0 mm 2 mps 751 mmHg 63%
    13:00 +26°C° 0 mm 2 mps 750 mmHg 61%
    14:00 +27°C° 0 mm 2 mps 750 mmHg 59%
    15:00 +26°C° 0 mm 2 mps 750 mmHg 62%
    16:00 +26°C° 0 mm 2 mps 750 mmHg 65%
    17:00 +25°C° 0 mm 3 mps 750 mmHg 68%
    18:00 +24°C° 0 mm 2 mps 750 mmHg 76%
    19:00 +21°C° 0 mm 2 mps 750 mmHg 83%
    20:00 +20°C° 0 mm 1 mps 750 mmHg 90%
    21:00 +20°C° 0 mm 1 mps 750 mmHg 91%
    22:00 +19°C° 0 mm 1 mps 751 mmHg 91%
    23:00 +19°C° 0 mm 1 mps 751 mmHg 91%

    8 June, Monday

    Time Temperature Precipitation Wind Pressure Humidity
    00:00 +19°C° 0 mm 1 mps 751 mmHg 91%
    01:00 +18°C° 0 mm 1 mps 751 mmHg 91%
    02:00 +18°C° 0 mm 1 mps 751 mmHg 91%
    03:00 +18°C° 0 mm 1 mps 751 mmHg 89%
    04:00 +19°C° 0 mm 1 mps 751 mmHg 88%
    05:00 +19°C° 0 mm 1 mps 751 mmHg 87%
    06:00 +20°C° 0 mm 1 mps 751 mmHg 81%
    07:00 +22°C° 0 mm 1 mps 751 mmHg 74%
    08:00 +24°C° 0 mm 1 mps 751 mmHg 68%
    09:00 +25°C° 0 mm 1 mps 751 mmHg 64%
    10:00 +26°C° 0 mm 1 mps 752 mmHg 59%
    11:00 +27°C° 0 mm 2 mps 752 mmHg 55%
    12:00 +28°C° 0 mm 2 mps 752 mmHg 55%
    13:00 +28°C° 0 mm 2 mps 751 mmHg 55%
    14:00 +28°C° 0 mm 3 mps 751 mmHg 55%
    15:00 +27°C° 0 mm 2 mps 751 mmHg 57%
    16:00 +27°C° 0 mm 2 mps 751 mmHg 60%
    17:00 +26°C° 0 mm 2 mps 751 mmHg 62%
    18:00 +25°C° 0 mm 2 mps 751 mmHg 68%
    19:00 +23°C° 0 mm 2 mps 751 mmHg 74%
    20:00 +21°C° 0 mm 1 mps 751 mmHg 80%
    21:00 +21°C° 0 mm 1 mps 751 mmHg 81%
    22:00 +20°C° 0 mm 1 mps 751 mmHg 81%
    23:00 +20°C° 0 mm 1 mps 751 mmHg 82%

    9 June, Tuesday

    Time Temperature Precipitation Wind Pressure Humidity
    00:00 +20°C° 0 mm 1 mps 751 mmHg 82%
    01:00 +20°C° 0 mm 1 mps 751 mmHg 82%
    02:00 +20°C° 0 mm 1 mps 751 mmHg 82%
    03:00 +20°C° 0 mm 1 mps 751 mmHg 81%
    04:00 +20°C° 0 mm 1 mps 751 mmHg 81%
    05:00 +20°C° 0 mm 1 mps 751 mmHg 81%
    06:00 +22°C° 0 mm 1 mps 752 mmHg 75%
    07:00 +24°C° 0 mm 1 mps 752 mmHg 70%
    08:00 +26°C° 0 mm 1 mps 752 mmHg 64%
    09:00 +27°C° 0 mm 2 mps 752 mmHg 61%
    10:00 +28°C° 0 mm 2 mps 752 mmHg 58%
    11:00 +29°C° 0 mm 3 mps 752 mmHg 55%
    12:00 +29°C° 0 mm 3 mps 752 mmHg 56%
    13:00 +29°C° 0 mm 3 mps 752 mmHg 57%
    14:00 +29°C° 0 mm 4 mps 752 mmHg 58%
    15:00 +28°C° 0.1 mm 4 mps 752 mmHg 60%
    16:00 +27°C° 0.1 mm 3 mps 752 mmHg 63%
    17:00 +26°C° 0.1 mm 3 mps 751 mmHg 65%
    18:00 +25°C° 0 mm 3 mps 752 mmHg 70%
    19:00 +22°C° 0 mm 3 mps 752 mmHg 74%
    20:00 +20°C° 0 mm 2 mps 752 mmHg 79%
    21:00 +20°C° 0 mm 2 mps 752 mmHg 79%
    22:00 +20°C° 0 mm 2 mps 752 mmHg 79%
    23:00 +20°C° 0 mm 1 mps 752 mmHg 79%

    10 June, Wednesday

    Time Temperature Precipitation Wind Pressure Humidity
    00:00 +20°C° 0 mm 1 mps 752 mmHg 78%
    01:00 +20°C° 0 mm 1 mps 752 mmHg 78%
    02:00 +20°C° 0 mm 1 mps 752 mmHg 77%
    03:00 +20°C° 0 mm 1 mps 752 mmHg 76%
    04:00 +20°C° 0 mm 1 mps 752 mmHg 76%
    05:00 +18°C° 0 mm 0 mps 752 mmHg 76%
    06:00 +20°C° 0 mm 0 mps 752 mmHg 71%
    07:00 +24°C° 0 mm 1 mps 753 mmHg 66%
    08:00 +26°C° 0 mm 1 mps 753 mmHg 61%
    09:00 +27°C° 0 mm 1 mps 753 mmHg 58%
    10:00 +28°C° 0 mm 1 mps 753 mmHg 55%
    11:00 +29°C° 0 mm 1 mps 754 mmHg 52%
    12:00 +29°C° 0 mm 1 mps 753 mmHg 51%
    13:00 +30°C° 0 mm 2 mps 753 mmHg 51%
    14:00 +30°C° 0 mm 2 mps 753 mmHg 51%
    15:00 +29°C° 0 mm 2 mps 752 mmHg 52%
    16:00 +29°C° 0 mm 2 mps 752 mmHg 54%
    17:00 +28°C° 0 mm 2 mps 752 mmHg 56%
    18:00 +26°C° 0.1 mm 1 mps 752 mmHg 61%
    19:00 +24°C° 0.1 mm 1 mps 752 mmHg 67%
    20:00 +22°C° 0.1 mm 1 mps 752 mmHg 72%
    21:00 +22°C° 0 mm 1 mps 753 mmHg 72%
    22:00 +22°C° 0 mm 1 mps 753 mmHg 73%
    23:00 +21°C° 0 mm 1 mps 753 mmHg 73%
    Show more